[[{"header":{"parameterUnit":"m.s-1","parameterCategory":1,"la1":30.2991,"la2":30.254,"lo1":-89.0895,"lo2":-89.0444,"dy":0.0017,"dx":0.0017,"nx":28,"ny":28,"refTime":"2023-07-21T03:00:00:Z","depth":0,"parameterNumber":2,"parameterNumberName":"U-component_of_WINDS"},"data":[0,0,0,0,0,0,0,0,0,0,0,0,0,0,0,0,0,0,0,0,0,0,0,0,0,0,0,0,0,0,0,0,0,0,0,0,0,0,0,0,0,0,0,0,0,0,0,0,0,0,0,0,0,0,0,0,0,0,3.7111,3.7112,0,3.7206,3.7207,3.7208,3.7202,3.72,3.7199,3.7198,3.7297,3.7301,3.7304,0,0,0,0,0,0,0,0,0,0,0,0,0,3.6928,3.6932,3.7111,3.7112,3.7113,3.7206,3.7207,3.7208,3.7202,3.72,3.7199,3.7197,3.7295,3.73,3.7305,0,0,0,0,0,0,0,0,0,0,0,0,0,3.7014,3.6933,3.7111,3.7121,3.7123,3.7205,3.7207,3.7208,3.7202,3.72,3.7198,3.7196,3.7294,3.73,3.7305,3.7384,0,0,3.7323,3.7326,0,0,0,0,0,0,0,0,3.7009,3.702,3.7119,3.7121,3.7123,3.719,3.7179,3.7267,3.7203,3.7172,3.7198,3.7195,3.7263,3.7271,3.7294,3.7388,3.7393,3.7324,3.7328,3.733,3.7332,0,0,0,0,0,0,0,3.7003,3.7016,3.7148,3.712,3.7123,3.7122,3.7132,3.7195,3.7228,3.7175,3.7175,3.7186,3.7264,3.7288,3.7296,3.7394,3.7324,3.7329,3.7333,3.7335,3.756,3.7563,0,0,0,0,0,0,3.6994,3.7011,3.7145,3.7151,3.706,3.7127,3.7138,3.717,3.7228,3.7234,3.7188,3.7185,3.7279,3.7289,3.7299,3.7396,3.733,3.7336,3.7339,3.7558,3.7561,3.7563,0,0,0,0,0,0,3.699,3.7006,3.7142,3.7081,3.7099,3.7133,3.7169,3.7173,3.7198,3.7237,3.7243,3.7206,3.7278,3.7291,3.7363,3.7399,3.7338,3.7344,3.7555,3.7559,3.7562,3.7589,0,0,0,0,0,0,3.6985,3.7005,3.7034,3.7082,3.7102,3.7203,3.7171,3.7177,3.7208,3.7205,3.7256,3.7262,3.7277,3.7354,3.7369,3.7406,3.7348,3.7552,3.7557,3.7561,3.7585,3.7593,3.76,0,0,0,0,0,3.6979,3.7038,3.7035,3.7052,3.7139,3.7205,3.7216,3.7231,3.721,3.7241,3.7267,3.7261,3.7393,3.7362,3.7378,3.7418,3.755,3.7555,3.7561,3.7582,3.7592,3.76,0,0,0,0,0,0,3.6993,3.7044,3.7042,3.7119,3.7157,3.7204,3.7242,3.7241,3.7287,3.7283,3.73,3.7312,3.7385,3.7409,3.7373,3.7498,3.7469,3.7478,3.7479,3.7489,3.7496,3.7489,3.7353,0,0,0,0,0,3.7005,3.7054,3.7096,3.716,3.7179,3.7207,3.7237,3.7245,3.7286,3.7303,3.7334,3.7375,3.7426,3.7459,3.7508,3.7589,3.7601,3.7625,3.7632,3.7638,3.7646,3.7692,3.7704,3.7581,3.7581,3.7581,0,0,3.7031,3.7065,3.7094,3.7163,3.7194,3.7246,3.7221,3.7276,3.7314,3.7311,3.7381,3.7406,3.7453,3.753,3.7566,3.7552,3.7682,3.7645,3.7649,3.7654,3.7699,3.771,3.7721,3.7585,3.7584,3.7584,0,0,3.7103,3.7133,3.719,3.7222,3.727,3.7288,3.7302,3.7349,3.7365,3.7436,3.7435,3.7482,3.7569,3.7603,3.7631,3.7719,3.7716,3.7735,3.7774,3.7819,3.7829,3.7837,3.787,3.7881,3.7742,3.7743,3.7743,0,3.7129,3.7205,3.722,3.7275,3.7306,3.7306,3.7365,3.7395,3.7457,3.7479,3.7463,3.7573,3.7605,3.7691,3.7712,3.7735,3.7753,3.7729,3.7826,3.7835,3.7843,3.7874,3.7886,3.7744,3.7744,3.7744,3.7744,0,3.7235,3.7288,3.7329,3.7388,3.7424,3.748,3.7505,3.754,3.7545,3.7566,3.7639,3.7677,3.7735,3.7756,3.7762,3.7844,3.7834,3.7822,3.7793,3.7857,3.7886,3.7898,3.7747,3.7747,3.7746,3.7746,0,0,3.7318,3.7386,3.7401,3.7428,3.7482,3.7523,3.7581,3.7637,3.7667,3.771,3.776,3.7834,3.7824,3.7857,3.7867,3.7906,3.7975,3.789,3.7891,3.7905,3.8069,3.8078,3.8092,3.7974,3.7976,3.7978,3.8066,0,3.7397,3.7498,3.7514,3.7604,3.7654,3.7655,3.7706,3.7745,3.7766,3.7813,3.7837,3.789,3.7872,3.7892,3.7931,3.7958,3.8009,3.7952,3.8021,3.8024,3.8009,3.8107,3.8116,3.8197,3.8077,3.8079,3.808,0,3.7502,3.7548,3.7642,3.769,3.7712,3.7757,3.781,3.7854,3.7899,3.7912,3.795,3.7956,3.8017,3.7986,3.8072,3.8034,3.8063,3.8081,3.8085,3.8092,3.8056,3.8117,3.8223,3.8235,3.8099,3.8097,3.8096,0,3.7554,3.764,3.7707,3.7731,3.7788,3.782,3.7846,3.7889,3.7922,3.7969,3.7991,3.8045,3.8075,3.8117,3.8138,3.8113,3.8223,3.8194,3.8237,3.8237,3.826,3.8258,3.8372,3.8278,3.8278,3.8278,3.8278,0,3.764,3.7698,3.7732,3.7774,3.7839,3.7858,3.7923,3.7948,3.7986,3.8034,3.8039,3.8084,3.8109,3.8158,3.8175,3.8245,3.8258,3.8271,3.8275,3.8271,3.8269,3.829,3.8285,3.8281,3.828,3.828,3.8279,0,3.771,3.7734,3.7809,3.7858,3.7871,3.7918,3.796,3.8002,3.8023,3.8084,3.8099,3.8134,3.8193,3.8218,3.829,3.8301,3.8381,3.838,3.8365,3.8367,3.8409,3.8405,3.8541,3.856,3.8453,3.8454,3.8455,0,3.7763,3.7808,3.7862,3.7894,3.7921,3.7972,3.8006,3.8027,3.8063,3.8118,3.8153,3.8212,3.8259,3.8353,3.8385,3.8441,3.8442,3.8486,3.845,3.8445,3.8444,3.8441,3.8446,3.8492,3.8493,3.8494,3.8495,0,3.7856,3.7866,3.7915,3.7968,3.8009,3.8052,3.8094,3.8121,3.8148,3.8188,3.8248,3.8285,3.8358,3.8417,3.8475,3.8502,3.8504,3.8506,3.8519,3.8515,3.8505,3.8512,3.8383,3.8503,3.8502,3.8501,3.8501,3.8501,3.792,3.796,3.8005,3.8059,3.8093,3.8133,3.8175,3.8202,3.8252,3.8313,3.8323,3.8387,3.8433,3.851,3.854,3.8592,3.8581,3.86,3.8605,3.8609,3.8612,3.8497,3.8602,3.8602,3.8602,3.8602,3.8602,0,3.8013,3.8042,3.8092,3.8152,3.8195,3.8192,3.8239,3.8276,3.8332,3.8374,3.8421,3.8491,3.8548,3.8585,3.8643,3.8677,3.8679,3.8692,3.869,3.8696,3.8618,3.8601,3.8689,3.8689,3.8689,3.8689,3.8689,3.8689,3.8067,3.8136,3.8152,3.8238,3.8267,3.8329,3.8357,3.8394,3.8428,3.8505,3.8552,3.8576,3.8617,3.8679,3.8731,3.8741,3.8763,3.8776,3.8785,3.8711,3.8702,3.8693,3.8677,3.878,3.878,3.8859,3.886,3.8861]},{"header":{"parameterUnit":"m.s-1","parameterCategory":1,"la1":30.2991,"la2":30.254,"lo1":-89.0895,"lo2":-89.0444,"dy":0.0017,"dx":0.0017,"nx":28,"ny":28,"refTime":"2023-07-21T03:00:00:Z","depth":0,"parameterNumber":3,"parameterNumberName":"V-component_of_WINDS"},"data":[0,0,0,0,0,0,0,0,0,0,0,0,0,0,0,0,0,0,0,0,0,0,0,0,0,0,0,0,0,0,0,0,0,0,0,0,0,0,0,0,0,0,0,0,0,0,0,0,0,0,0,0,0,0,0,0,0,0,0.5577,0.5577,0,0.559,0.559,0.559,0.5603,0.5603,0.5603,0.5604,0.5616,0.5616,0.5616,0,0,0,0,0,0,0,0,0,0,0,0,0,0.5562,0.5563,0.5577,0.5577,0.5577,0.559,0.559,0.559,0.5603,0.5603,0.5603,0.5604,0.5616,0.5616,0.5616,0,0,0,0,0,0,0,0,0,0,0,0,0,0.5571,0.5563,0.5577,0.5585,0.5586,0.559,0.559,0.559,0.5603,0.5603,0.5603,0.5604,0.5616,0.5616,0.5616,0.5612,0,0,0.5617,0.5617,0,0,0,0,0,0,0,0,0.5571,0.5572,0.5584,0.5585,0.5586,0.5595,0.5589,0.5598,0.5603,0.5597,0.5604,0.5604,0.5609,0.561,0.5611,0.5613,0.5613,0.5617,0.5617,0.5617,0.5617,0,0,0,0,0,0,0,0.557,0.5571,0.5582,0.5584,0.5585,0.5588,0.5589,0.5591,0.5601,0.5597,0.5598,0.5599,0.5609,0.5611,0.5612,0.5614,0.5617,0.5617,0.5617,0.5617,0.5611,0.5611,0,0,0,0,0,0,0.5568,0.5571,0.5582,0.5582,0.5579,0.5588,0.559,0.5592,0.5601,0.5603,0.5599,0.56,0.561,0.5611,0.5612,0.5607,0.5617,0.5617,0.5618,0.5612,0.5611,0.5611,0,0,0,0,0,0,0.5568,0.5569,0.5581,0.5577,0.5579,0.5588,0.559,0.5592,0.5594,0.5603,0.5604,0.5599,0.5611,0.5612,0.5612,0.5608,0.5618,0.5618,0.5612,0.5611,0.5611,0.5598,0,0,0,0,0,0,0.5568,0.5569,0.5568,0.5577,0.5579,0.5581,0.559,0.5592,0.5594,0.5595,0.5603,0.5605,0.5611,0.5611,0.5612,0.5608,0.5618,0.5612,0.5612,0.5611,0.5599,0.5597,0.5596,0,0,0,0,0,0.5567,0.5564,0.5568,0.5569,0.5578,0.5581,0.5582,0.559,0.5594,0.5593,0.5598,0.5604,0.5608,0.5611,0.5612,0.5608,0.5613,0.5612,0.5611,0.5599,0.5597,0.5596,0,0,0,0,0,0,0.5555,0.5565,0.557,0.557,0.5574,0.5583,0.5582,0.5587,0.5591,0.5592,0.5601,0.5602,0.5601,0.5605,0.5608,0.5604,0.5611,0.5611,0.5602,0.56,0.5599,0.5597,0.5618,0,0,0,0,0,0.5552,0.5554,0.5563,0.5562,0.5564,0.5573,0.5574,0.558,0.5585,0.5587,0.5592,0.5596,0.5598,0.56,0.5602,0.5599,0.5601,0.5597,0.5596,0.5594,0.5593,0.5591,0.5589,0.5608,0.5609,0.5609,0,0,0.5547,0.5553,0.5553,0.556,0.5564,0.5565,0.5574,0.5575,0.5576,0.5587,0.5587,0.5591,0.5596,0.5595,0.5594,0.5598,0.5588,0.5593,0.5592,0.5592,0.559,0.5588,0.5586,0.5608,0.5608,0.5608,0,0,0.5537,0.5542,0.5541,0.5545,0.5551,0.5557,0.5556,0.5564,0.5567,0.5568,0.5575,0.5576,0.558,0.5583,0.5585,0.5575,0.558,0.5575,0.5567,0.5564,0.5563,0.5561,0.5557,0.5555,0.5575,0.5575,0.5575,0,0.5529,0.5532,0.554,0.5541,0.5543,0.5552,0.5551,0.5554,0.556,0.5561,0.5565,0.5569,0.5574,0.5572,0.557,0.5571,0.557,0.5574,0.5562,0.5561,0.556,0.5556,0.5554,0.5574,0.5574,0.5574,0.5574,0,0.5522,0.5523,0.5522,0.5527,0.5529,0.5529,0.5536,0.5537,0.5542,0.5547,0.5546,0.5552,0.5555,0.5555,0.556,0.5554,0.5555,0.5561,0.5568,0.5557,0.5553,0.5552,0.5573,0.5573,0.5573,0.5574,0,0,0.5505,0.5515,0.5514,0.5516,0.5523,0.5524,0.5523,0.5526,0.5526,0.553,0.5529,0.5532,0.5536,0.5538,0.5544,0.5542,0.5532,0.5547,0.5547,0.5543,0.5524,0.5519,0.5517,0.5536,0.5535,0.5535,0.5523,0,0.5496,0.5496,0.5503,0.55,0.5501,0.551,0.5509,0.5512,0.5517,0.5517,0.5522,0.5523,0.5529,0.5531,0.5529,0.5533,0.5528,0.5534,0.5534,0.5534,0.5531,0.5515,0.551,0.5498,0.5521,0.5521,0.5521,0,0.5486,0.5488,0.5486,0.5492,0.5492,0.5492,0.5494,0.5495,0.5499,0.5502,0.5504,0.5509,0.5508,0.5515,0.5513,0.5517,0.5517,0.5519,0.5519,0.5519,0.5526,0.5513,0.5495,0.5492,0.5519,0.5519,0.5519,0,0.5473,0.5476,0.5474,0.5476,0.5483,0.5482,0.5485,0.5489,0.549,0.5492,0.5492,0.5494,0.5495,0.5496,0.5502,0.5506,0.5498,0.5506,0.55,0.55,0.5497,0.5497,0.5478,0.5499,0.5499,0.5499,0.5499,0,0.5461,0.5459,0.5468,0.5467,0.5465,0.5472,0.547,0.5473,0.5476,0.5476,0.5483,0.5482,0.549,0.549,0.5494,0.5491,0.5492,0.5493,0.5494,0.5492,0.5492,0.5492,0.5492,0.5499,0.5499,0.5499,0.5499,0,0.5446,0.5453,0.5451,0.5458,0.5459,0.5457,0.5462,0.5461,0.5465,0.5464,0.5464,0.547,0.547,0.5476,0.5477,0.548,0.5474,0.5477,0.5473,0.5473,0.5466,0.5467,0.5446,0.5443,0.5467,0.5466,0.5466,0,0.5438,0.5437,0.5443,0.5443,0.5445,0.5445,0.5446,0.5453,0.5453,0.5456,0.5454,0.5455,0.5455,0.5454,0.5459,0.5459,0.5462,0.5454,0.5462,0.5459,0.546,0.546,0.5459,0.5453,0.5452,0.5452,0.5452,0,0.5423,0.5426,0.5427,0.5428,0.5429,0.543,0.5432,0.5432,0.5439,0.5439,0.5439,0.5439,0.544,0.544,0.5441,0.5443,0.5448,0.5449,0.5448,0.5445,0.5442,0.5442,0.5467,0.545,0.545,0.545,0.545,0.545,0.5411,0.5409,0.5413,0.5413,0.5415,0.5416,0.5415,0.5419,0.5419,0.542,0.5424,0.5422,0.5425,0.5427,0.5428,0.5427,0.543,0.5428,0.5428,0.5427,0.5425,0.5443,0.5427,0.5427,0.5427,0.5427,0.5427,0,0.5395,0.5398,0.5398,0.54,0.54,0.5405,0.5407,0.5406,0.5405,0.5407,0.5407,0.5406,0.5405,0.5409,0.5409,0.5407,0.5409,0.5406,0.5406,0.5406,0.5422,0.5423,0.5404,0.5404,0.5404,0.5404,0.5404,0.5404,0.5387,0.5384,0.5387,0.5385,0.5387,0.5386,0.5386,0.5387,0.5388,0.5387,0.5386,0.5389,0.5391,0.5391,0.539,0.5391,0.539,0.5386,0.5388,0.5403,0.5405,0.5407,0.5408,0.5386,0.5386,0.5372,0.5371,0.5371]}]]